AirNav   Pilot Hours Calculator
 
 1124 users online  

2R6 Bunkie Municipal Airport
Bunkie, Louisiana, USA

GOING TO BUNKIE?


FAA INFORMATION EFFECTIVE 08 SEPTEMBER 2022

Location

FAA Identifier: 2R6
Lat/Long: 30-57-24.2900N 092-14-02.7590W
30-57.404833N 092-14.045983W
30.9567472,-92.2340997
(estimated)
Elevation: 62 ft. / 18.9 m (surveyed)
Variation: 01E (2010)
From city: 2 miles S of BUNKIE, LA
Time zone: UTC -5 (UTC -6 during Standard Time)
Zip code: 71322

Airport Operations

Airport use: Open to the public
Activation date: 03/1950
Control tower: no
ARTCC: HOUSTON CENTER
FSS: DE RIDDER FLIGHT SERVICE STATION
NOTAMs facility: DRI (NOTAM-D service available)
Attendance: UNATNDD
Wind indicator: lighted
Segmented circle: no
Lights: ACTVT REIL RWY 18 & 36; MIRL RWY 18/36 - CTAF. MIRL RWY 18/36 PRESET LOW INTST DUSK-DAWN; INCR INTST - CTAF.
Beacon: white-green (lighted land airport)
Operates sunset to sunrise.

Airport Communications

CTAF: 122.9
POLK APPROACH: 125.4
POLK DEPARTURE: 125.4

Nearby radio navigation aids

VOR radial/distance  VOR name  Freq  Var
AEXr140/22.6ALEXANDRIA VORTAC116.1003E

 
NDB name  Hdg/Dist  Freq  Var  ID
DURALDE023/26.226302EECY . -.-. -.--

Airport Services

Fuel available: 100LL
Parking: hangars and tiedowns
Airframe service: NONE
Powerplant service: NONE
Bottled oxygen: NONE
Bulk oxygen: NONE

Runway Information

Runway 18/36

Dimensions: 3005 x 75 ft. / 916 x 23 m
Surface: asphalt, in good condition
Weight bearing capacity: 
Single wheel: 8.0
Runway edge lights: medium intensity
RUNWAY 18  RUNWAY 36
Latitude: 30-57.652300N30-57.156633N
Longitude: 092-14.045783W092-14.044583W
Elevation: 59.0 ft.59.0 ft.
Traffic pattern: leftleft
Runway heading: 179 magnetic, 180 true359 magnetic, 360 true
Markings: nonprecision, in fair conditionnonprecision, in fair condition
Visual slope indicator: 2-light PAPI on left (3.00 degrees glide path)2-light PAPI on left (3.25 degrees glide path)
Runway end identifier lights: yesyes
Touchdown point: yes, no lightsyes, no lights
Obstructions: none97 ft. trees, 2752 ft. from runway, 397 ft. left of centerline, 26:1 slope to clear

Airport Ownership and Management from official FAA records

Ownership: Publicly-owned
Owner: TOWN OF BUNKIE
PO BOX 630
BUNKIE, LA 71322
Phone 318-346-7663
Manager: FRED VOLLMAN
PO BOX 220
BUNKIE, LA 71322
Phone (318) 264-2922

Airport Operational Statistics

Aircraft based on the field: 5
Single engine airplanes: 5
    
Aircraft operations: avg 125/week *
69% local general aviation
31% transient general aviation
* for 12-month period ending 08 August 2019

Additional Remarks

100LL FUEL AVBL BY APPT CALL 318-346-2371.
FOR CD CTC POLK APCH AT 337-531-2352.

Instrument Procedures

NOTE: All procedures below are presented as PDF files. If you need a reader for these files, you should download the free Adobe Reader.

NOT FOR NAVIGATION. Please procure official charts for flight.
FAA instrument procedures published for use from 8 September 2022 at 0901Z to 6 October 2022 at 0900Z.

 
IAPs - Instrument Approach Procedures
RNAV (GPS) RWY 18   download (200KB)
RNAV (GPS) RWY 36   download (199KB)
VOR/DME-A   download (185KB)
NOTE: Special Take-Off Minimums/Departure Procedures apply   download (116KB)

Other nearby airports with instrument procedures:

KMKV - Marksville Municipal Airport (12 nm NE)
KOPL - St Landry Parish Airport-Ahart Field (25 nm S)
KACP - Allen Parish Airport (26 nm SW)
KESF - Esler Regional Airport (26 nm N)
KAEX - Alexandria International Airport (27 nm NW)
 
Loc | Ops | Rwys | IFR | FBO | Links
Com | Nav | Svcs | Stats | Notes
Area around 2R6 (Bunkie Municipal Airport)
 
Road maps at: MapQuest Bing Google
 
Aerial photo
WARNING: Photo may not be current or correct
Aerial photo of 2R6 (Bunkie Municipal Airport)
Photo taken 11-Sep-2010
looking north.

Do you have a better or more recent aerial photo of Bunkie Municipal Airport that you would like to share? If so, please send us your photo.

 
Sectional chart

 
Airport distance calculator
Flying to Bunkie Municipal Airport? Find the distance to fly.

From to 2R6

Sunrise and sunset
Times for 29-Sep-2022
 Local
(UTC-5)
 Zulu
(UTC)
Morning civil twilight06:3811:38
Sunrise07:0212:02
Sunset18:5623:56
Evening civil twilight19:2000:20

Current date and time
Zulu (UTC)  30-Sep-2022 00:50:47
Local (UTC-5)  29-Sep-2022 19:50:47
 
METAR
KOPL 
25nm S 
300035Z AUTO 01005KT 10SM CLR 18/05 A3006 RMK AO2 T01750052
KACP 
26nm SW 
300035Z AUTO 36003KT 10SM CLR 18/07 A3007 RMK AO2
KESF 
27nm N 
292353Z AUTO 01003KT 10SM CLR 19/08 A3008 RMK AO2 SLP183 T01890083 10250 20189 56010
KAEX 
28nm NW 
292353Z VRB05KT 10SM CLR 21/07 A3007 RMK AO2 SLP185 T02110067 10250 20211 56009
KBKB 
35nm W 
292352Z AUTO 10SM CLR 20/07 A3006 RMK AO2 SLP207 T02000067 10261 20200 56003
KPOE 
40nm W 
292355Z AUTO 02004KT 10SM CLR 21/06 A3007 RMK AO2 SLP184 T02110058 10255 20211 56004
KHZR 
41nm E 
300035Z AUTO 00000KT 10SM CLR 17/09 A3007 RMK AO2 T01710088
KLFT 
47nm S 
292353Z 02010KT 10SM CLR 21/07 A3004 RMK AO2 SLP173 T02060067 10250 20206 55005
K3R7 
48nm SW 
300035Z AUTO 02005KT 10SM CLR 19/06 A3006 RMK AO2 T01850063
TAF
KAEX 
28nm NW 
291720Z 2918/3018 03006G12KT P6SM SKC FM300100 VRB03KT P6SM SKC
NOTAMs
Click for the latest NOTAMs
NOTAMs are issued by the DoD/FAA and will open in a separate window not controlled by AirNav.

 

 
 

Would you like to see your business listed on this page?

 If your business provides an interesting product or service to pilots, flight crews, aircraft, or users of the Bunkie Municipal Airport, you should consider listing it here.  To start the listing process, click on the button below
 
Add a business
 

Other Pages about Bunkie Municipal Airport

Update a link
 
Copyright © AirNav, LLC. All rights reserved. Privacy Policy  Contact